Wind_Speed
19 18 18 17 17 16 16 16 16 16 15 15 14 13 13 13 13 12 12 11 11 11 12 12 12 12 12 12 11 11 11 11 11 11 11 11 11 11 11 10 10 11 12 13 13 14 14 14 13 13 12 12 11 11 10 10 11 11 12 12 13 14 15 16 17 16 14 15 17 17 18 19 19 20 21 22 22 22 22 22 22 22 22 23 22
21 21 20 19 19 18 18 18 17 17 17 16 16 15 15 14 14 14 13 13 12 12 13 13 13 13 13 12 12 12 11 11 11 11 11 12 12 12 11 11 11 12 12 12 13 14 14 15 15 15 14 13 12 12 12 12 12 12 12 13 14 15 16 16 17 16 15 15 16 17 18 19 19 20 21 21 21 21 20 20 21 21 22 22 22
22 23 23 22 21 20 20 20 19 19 18 18 17 17 16 16 15 15 15 14 14 14 14 14 14 14 13 13 13 12 12 11 11 10 11 11 12 12 12 11 11 12 12 12 12 13 14 14 15 15 14 13 13 13 13 13 13 13 13 14 14 15 16 17 16 16 15 14 15 17 18 19 19 20 21 21 21 21 20 20 20 20 21 21 21
21 23 24 24 24 23 22 22 21 21 20 19 19 19 18 18 17 17 16 16 15 15 15 15 14 14 14 14 14 13 13 12 11 11 11 11 11 11 11 11 11 11 11 11 10 11 12 13 14 15 14 14 14 14 14 14 14 14 14 14 15 15 16 17 16 16 15 15 15 16 18 19 19 20 21 22 22 22 22 21 21 21 22 23 23
21 22 23 25 26 25 24 24 23 22 22 21 21 21 21 20 19 19 18 17 17 16 16 16 15 15 15 15 15 14 14 13 12 12 12 12 12 11 11 11 11 11 10 10 10 9 10 11 13 14 14 13 14 14 14 14 14 14 14 15 15 16 16 17 17 17 17 16 16 16 17 19 19 20 22 22 22 23 22 22 23 23 23 24 24
23 22 22 24 25 26 26 26 25 24 24 23 23 23 23 22 21 20 20 19 18 18 17 17 16 16 16 16 15 15 15 14 14 14 14 13 13 12 12 11 11 11 11 11 10 10 10 10 12 13 13 13 13 14 14 15 15 14 14 15 15 16 16 16 17 18 18 18 17 17 17 18 19 20 22 22 23 23 23 23 23 23 23 23 24
25 23 23 23 25 26 27 27 27 26 26 25 25 25 24 24 23 22 21 21 20 19 19 18 18 18 17 16 16 16 16 16 15 15 15 15 15 14 14 13 13 13 12 12 12 11 11 11 11 12 12 12 13 14 15 15 15 15 15 16 16 17 17 17 17 18 18 19 18 18 18 18 18 19 21 22 22 23 24 23 23 22 22 22 23
28 26 25 25 25 26 27 27 28 27 27 26 25 25 25 25 25 24 23 22 22 21 20 20 19 18 18 17 17 17 17 16 16 16 16 16 16 16 16 15 15 15 15 14 14 13 12 12 12 12 12 13 13 14 14 15 15 15 15 16 16 17 17 17 17 17 18 18 17 17 17 17 17 18 19 20 21 22 23 24 24 24 24 23 23
30 29 29 28 27 26 26 27 28 28 28 27 26 26 26 25 25 25 25 24 23 22 21 21 20 19 19 18 18 18 17 17 17 17 17 17 17 17 17 17 17 17 16 16 16 15 15 14 14 14 14 14 14 14 14 14 14 14 15 16 16 16 16 17 17 17 18 17 17 17 17 16 16 17 18 19 20 22 23 25 25 26 26 25 25
30 30 31 30 29 27 26 27 28 28 28 28 28 27 27 26 26 25 25 25 24 23 22 22 22 21 20 20 19 19 18 18 18 18 18 18 18 18 17 17 18 18 18 17 17 17 17 17 16 16 16 16 15 15 15 15 15 15 15 15 16 16 16 17 17 18 18 18 18 18 18 17 17 19 19 20 22 23 25 26 27 27 28 27 26
31 31 32 31 30 29 28 28 29 29 29 29 29 29 28 28 27 26 26 25 25 24 24 24 23 23 22 21 21 20 20 20 20 20 20 20 19 19 19 18 18 18 18 18 18 18 19 18 18 18 18 17 17 17 17 17 16 16 16 16 17 17 18 18 18 19 19 20 19 20 20 19 19 20 21 22 24 25 26 27 28 29 29 29 28
31 31 33 34 33 32 32 31 32 32 32 30 30 29 29 28 28 27 27 26 26 25 25 25 25 24 24 23 23 23 22 22 21 21 21 21 21 21 20 20 20 20 19 19 19 20 20 20 20 20 19 19 19 19 19 19 19 19 18 18 18 19 19 19 20 20 20 21 21 20 20 21 20 21 22 23 25 26 27 28 29 30 30 31 31
30 32 34 35 36 35 35 34 35 35 34 32 30 29 29 28 28 28 28 27 26 26 26 26 26 25 25 25 25 24 23 23 22 23 22 22 22 21 21 22 22 21 21 21 21 21 21 21 21 20 21 21 21 22 22 22 22 22 21 21 21 20 20 21 21 21 21 22 22 21 20 21 22 22 22 24 26 27 28 28 29 30 31 31 32
28 32 34 34 34 34 34 34 35 35 33 31 30 30 30 30 29 29 29 28 28 27 27 27 26 26 25 25 25 25 24 23 23 24 23 23 23 22 22 23 23 23 23 23 22 22 21 21 21 21 21 21 22 22 23 23 24 24 23 23 22 21 21 21 21 22 23 23 24 23 23 24 25 24 25 26 27 28 29 29 29 30 30 31 32
26 28 29 30 30 30 31 33 36 37 35 34 33 33 32 32 32 31 30 29 28 27 27 27 26 25 25 25 25 24 23 23 24 24 24 24 24 24 24 24 24 24 24 24 24 23 23 23 22 22 22 22 22 23 23 23 24 24 23 23 23 22 22 22 23 24 25 26 26 27 27 27 28 27 27 28 29 29 30 30 29 30 31 32 32
22 21 23 24 24 25 27 29 32 35 36 35 33 32 31 30 29 28 27 25 24 25 26 26 26 25 25 25 25 24 24 23 23 24 24 25 25 25 24 24 24 24 24 25 25 25 24 24 23 23 23 23 24 24 25 25 25 25 25 25 25 25 25 25 26 27 27 28 29 29 29 29 30 29 29 29 30 31 31 30 29 30 32 33 32
19 19 20 19 18 20 22 23 25 29 31 32 31 30 29 28 26 25 24 23 23 24 25 25 25 25 25 25 25 25 25 24 24 24 25 26 26 25 25 24 24 24 24 24 25 25 25 24 24 23 24 24 24 25 26 27 27 27 28 28 28 27 27 27 28 28 28 29 30 31 31 31 31 30 29 30 30 31 33 32 30 31 33 34 33
20 19 19 19 19 21 21 23 24 26 27 28 29 28 28 26 25 24 24 23 24 24 25 24 25 25 25 25 25 25 25 25 25 25 26 26 27 27 26 26 25 25 25 25 26 26 27 26 25 25 24 24 25 25 26 27 28 28 29 29 29 29 28 29 29 29 30 30 31 32 32 32 32 31 30 30 31 32 34 33 32 33 34 34 35
20 20 20 21 22 22 23 23 22 20 21 23 25 25 25 24 22 21 21 21 21 22 23 24 25 24 24 24 24 24 23 24 24 25 26 27 28 28 28 28 27 27 27 27 27 28 29 30 29 27 27 26 26 27 27 27 28 29 29 30 30 30 30 31 31 31 31 32 33 33 34 34 34 34 33 32 33 33 34 34 33 34 35 35 36
20 22 22 22 20 16 18 20 20 18 17 17 17 19 20 20 18 18 17 17 17 17 19 21 22 22 21 22 22 21 21 22 23 24 24 25 27 29 30 30 30 29 28 28 29 29 30 31 31 30 29 28 28 29 29 30 30 31 31 32 32 32 33 33 33 33 34 35 35 35 35 35 35 35 35 34 34 34 34 34 34 35 36 36 35
18 21 22 22 20 15 14 18 21 20 18 16 15 16 18 18 18 16 14 14 16 16 17 19 20 20 19 19 20 20 20 21 22 23 25 26 28 29 29 30 30 29 28 27 28 28 29 31 31 31 29 29 28 29 30 31 32 33 34 35 35 36 36 36 36 36 37 37 37 37 36 36 35 35 35 35 35 34 34 34 34 34 35 35 34
17 18 18 19 19 16 15 18 21 22 21 19 18 17 18 19 18 16 14 14 15 16 17 18 19 20 19 20 20 21 21 20 20 20 22 25 28 30 30 30 29 28 26 26 27 28 29 31 32 32 31 30 30 30 30 31 32 33 34 35 36 38 38 39 39 39 39 39 39 38 38 38 37 37 36 36 36 35 35 35 35 34 34 34 34
14 14 13 14 14 14 15 16 18 19 19 18 17 16 16 15 14 12 11 11 12 12 12 14 15 15 16 16 17 18 19 20 20 21 20 21 22 26 28 29 28 27 26 26 27 29 30 31 32 33 33 32 32 32 32 32 32 32 33 33 34 36 37 38 39 40 40 40 40 40 40 40 39 38 37 36 36 36 36 36 35 35 35 34 34
11 9 9 10 10 10 10 11 11 12 13 13 13 13 12 11 9 8 8 8 9 9 8 9 9 8 8 9 9 10 10 11 14 17 19 20 21 23 26 27 26 26 26 27 28 31 33 34 34 34 33 32 32 32 32 32 32 32 33 33 33 34 35 36 37 38 39 40 40 41 40 39 39 38 37 37 36 36 36 36 36 36 36 35 35
9 8 8 8 7 7 7 8 7 8 9 9 10 10 10 9 8 8 8 8 9 9 8 8 8 8 8 8 9 9 9 9 9 10 13 15 16 18 20 22 23 23 23 25 27 29 32 32 32 30 29 29 30 31 31 32 32 33 33 33 34 34 34 35 35 36 37 37 38 39 39 39 38 37 36 36 36 36 35 35 35 35 35 35 35
10 9 9 8 8 7 8 8 8 9 9 9 10 10 10 10 10 10 11 11 11 12 12 11 11 12 12 12 12 12 12 13 13 14 14 14 15 16 17 18 19 20 21 22 23 25 25 25 25 25 25 25 25 26 27 28 29 30 31 31 32 33 34 34 35 35 35 34 35 36 37 38 38 36 36 35 35 35 34 34 34 34 34 34 34
12 12 11 11 11 10 10 10 11 11 11 11 12 12 12 13 13 13 13 13 14 14 15 15 15 15 16 16 16 16 16 17 18 19 19 20 20 21 21 22 22 23 24 25 25 26 26 26 26 26 26 26 26 26 26 26 26 27 28 28 29 29 30 31 32 33 33 32 32 32 33 35 35 35 35 35 34 33 33 33 33 33 33 33 33
13 13 13 13 12 12 12 12 13 13 13 13 14 14 15 15 15 16 16 16 17 17 17 18 18 18 19 20 20 21 21 22 23 23 24 25 25 25 26 26 26 26 27 28 28 29 29 29 30 30 30 30 29 29 29 29 29 29 29 29 29 29 29 29 30 31 31 31 31 30 31 32 33 33 34 34 34 34 33 33 32 32 32 32 32
15 15 15 14 14 14 14 14 14 15 15 16 16 17 17 17 18 18 19 19 19 19 20 20 21 21 22 23 24 25 25 26 26 27 28 28 28 29 29 29 28 28 28 28 29 30 30 31 31 31 31 31 31 31 30 30 31 31 31 31 31 31 31 31 31 31 31 31 31 31 30 31 31 31 32 33 34 35 35 35 34 34 34 33 33
16 17 17 17 16 16 16 16 16 17 17 18 18 19 20 20 20 21 21 21 22 22 22 23 23 23 24 24 25 26 26 27 27 28 28 29 29 29 29 29 29 28 28 28 28 29 29 30 30 30 30 30 30 30 30 30 30 31 32 32 32 33 33 33 33 33 33 33 33 33 33 33 32 32 31 31 31 31 32 33 34 35 35 36 36
17 18 18 18 18 18 18 18 18 19 19 20 20 21 22 22 23 23 23 23 24 24 24 24 24 24 24 24 24 24 24 25 25 25 26 26 26 26 26 26 26 26 27 27 27 27 27 27 27 28 28 29 29 29 29 30 30 30 31 32 32 33 33 33 34 34 34 34 34 35 35 35 36 35 34 33 32 31 31 32 32 33 33 34 35
17 18 19 19 19 19 19 20 20 20 21 21 22 23 23 24 24 24 25 25 25 25 25 25 25 25 25 24 23 23 23 23 23 23 23 23 23 23 22 22 22 22 23 24 24 24 25 25 25 25 26 26 27 28 28 29 29 29 29 30 31 31 32 32 33 33 34 34 34 35 35 36 37 36 36 36 35 35 34 34 34 34 34 34 34
17 18 18 19 19 20 20 20 20 21 21 22 23 24 25 25 26 26 26 26 26 26 26 26 26 25 25 25 24 24 23 22 22 22 22 21 21 21 20 20 19 19 20 20 21 21 22 23 23 24 24 24 25 25 26 26 27 27 27 28 28 29 30 30 31 31 32 32 33 33 34 35 36 36 36 37 37 36 36 36 36 36 36 36 36
18 19 19 19 19 19 19 20 20 20 21 21 22 23 24 25 26 26 26 26 26 26 26 25 25 24 24 24 23 23 23 22 21 21 20 20 20 20 20 20 20 19 20 20 21 21 22 23 23 23 24 24 25 25 25 26 26 26 26 27 27 27 28 29 30 30 31 31 32 32 33 33 34 34 35 36 37 37 36 36 37 37 37 38 38
19 20 20 20 19 19 19 19 20 20 20 21 21 22 22 23 23 24 24 24 24 24 24 23 23 23 22 22 22 22 22 22 22 22 22 21 21 21 21 22 22 22 23 23 24 24 25 25 25 26 26 26 27 27 28 28 28 28 28 28 28 29 29 29 30 30 31 32 32 32 33 33 33 33 33 35 36 36 36 36 37 37 37 38 38
20 21 21 21 20 20 20 20 20 20 20 21 21 21 21 21 21 21 21 21 21 21 21 20 20 20 20 20 21 21 22 23 23 24 24 24 24 24 24 24 24 25 25 25 26 27 27 28 28 28 28 29 29 30 30 30 30 31 31 31 31 31 31 32 32 32 33 33 34 34 34 35 35 34 34 34 35 36 36 37 37 37 37 38 38
20 21 21 21 21 21 20 20 20 20 20 21 21 21 21 21 20 19 19 19 19 19 20 20 20 20 21 21 21 22 23 24 25 25 26 26 26 27 27 27 28 28 28 28 28 29 29 30 30 31 31 31 32 32 32 33 33 34 34 34 34 34 34 34 35 35 35 35 36 36 36 36 37 37 37 36 36 36 37 37 38 38 38 38 39
20 20 21 21 21 21 21 20 20 20 20 20 20 20 21 20 19 19 19 20 20 21 22 22 23 23 23 23 23 24 25 26 26 27 28 28 29 29 29 30 30 30 30 30 30 31 31 32 32 33 33 33 34 34 34 34 35 35 36 36 37 37 37 38 38 38 38 38 38 38 39 39 39 39 39 39 39 39 39 39 39 39 39 39 39
20 20 20 21 21 21 21 21 21 20 20 20 20 21 21 21 21 21 21 22 23 24 24 25 26 26 26 26 26 26 27 27 28 28 29 29 29 29 30 30 31 31 31 31 32 32 32 32 33 34 34 34 35 35 35 36 36 36 37 37 38 39 39 40 40 40 41 41 41 41 41 41 41 41 41 41 41 41 41 41 41 41 41 40 40
19 19 20 20 20 21 21 21 21 21 21 21 22 22 23 23 22 23 24 24 25 26 26 26 27 28 28 28 28 28 29 29 29 29 29 29 29 29 29 30 30 30 30 31 31 32 32 33 33 34 34 35 35 36 37 38 38 38 38 38 39 39 40 41 41 42 42 43 43 43 44 44 44 44 44 44 44 44 44 44 43 43 43 43 42
18 19 19 19 20 20 20 20 21 21 22 22 23 24 24 24 24 24 25 25 26 26 26 27 27 27 28 28 28 29 29 30 30 30 30 31 31 31 31 31 32 32 32 32 32 33 33 33 34 34 35 35 36 37 38 39 39 40 40 40 41 41 41 42 42 43 43 44 45 45 46 46 46 46 46 46 47 47 47 46 46 46 46 45 45
19 19 19 19 19 20 20 21 21 21 22 23 23 24 24 25 25 25 25 25 26 26 26 26 26 27 27 27 27 28 29 30 30 30 30 31 32 33 33 34 34 34 34 34 34 34 35 35 35 36 36 37 37 38 39 40 41 41 42 42 43 44 44 44 44 44 45 45 46 46 47 47 48 48 48 48 49 49 49 49 49 49 48 48 48
20 20 20 20 20 20 21 21 21 22 22 23 23 24 24 24 24 24 24 24 25 25 25 25 26 26 27 27 26 27 28 29 30 31 31 32 33 34 35 35 36 36 36 36 36 36 37 37 38 38 39 40 41 41 42 43 43 44 45 45 46 46 47 47 48 47 47 47 47 47 48 48 49 49 50 50 50 50 50 50 50 50 50 50 50
20 20 20 20 20 20 21 21 21 22 22 22 23 23 23 23 24 24 24 24 24 25 25 26 26 27 28 28 29 29 30 31 32 33 33 34 35 36 37 37 38 38 38 38 39 39 40 40 41 41 42 43 44 44 45 46 47 48 48 49 49 49 50 50 50 50 50 50 50 49 49 49 49 50 50 51 51 52 52 51 51 50 51 51 51
19 19 19 19 19 19 19 20 20 21 21 21 22 22 22 23 23 24 24 25 25 26 26 27 28 28 29 30 31 32 33 34 35 35 36 36 37 38 39 40 40 41 41 41 42 42 43 43 44 45 45 46 47 47 48 49 50 51 51 52 52 53 53 53 52 52 52 52 52 51 51 50 50 50 50 50 51 52 52 52 52 51 51 51 50
17 18 18 18 18 18 18 19 19 19 20 20 21 21 22 22 23 24 25 25 26 27 28 28 29 30 31 32 33 34 35 36 36 37 38 39 39 40 41 42 42 42 43 44 44 45 46 47 48 49 49 50 51 51 51 51 51 51 52 53 54 54 55 55 55 54 54 54 53 52 52 51 51 50 50 50 50 50 51 51 51 52 52 51 51
17 17 17 17 17 18 18 18 18 19 19 20 20 21 22 22 23 24 25 26 28 29 30 31 32 32 33 34 35 35 36 36 37 38 39 39 40 41 42 42 43 44 45 46 47 48 49 49 50 51 52 53 54 54 54 53 53 52 52 53 54 55 56 56 57 56 56 56 55 54 54 53 52 52 51 51 51 50 50 50 50 50 50 51 51
17 17 17 17 17 18 18 18 19 19 20 20 21 22 23 24 25 26 27 28 29 30 31 32 33 33 34 34 35 35 36 37 37 38 39 40 41 42 43 44 45 46 46 47 48 49 50 51 52 52 53 54 54 55 55 55 55 55 55 55 55 56 57 57 58 58 58 58 57 57 56 55 54 54 53 52 52 52 51 51 50 49 49 49 49
18 18 18 18 18 18 18 18 19 20 20 21 23 23 24 25 26 27 28 29 29 30 31 31 32 33 33 34 35 36 37 37 38 39 40 41 42 43 44 45 46 47 48 49 50 50 51 52 53 53 54 54 55 55 56 56 56 56 57 57 57 57 58 59 59 59 59 59 59 58 57 57 56 55 55 54 53 52 52 51 50 50 49 48 47
19 18 18 18 18 18 19 19 20 21 21 22 23 24 25 26 26 27 27 28 28 29 30 30 31 32 33 34 35 37 38 39 40 41 42 43 44 45 46 47 48 49 50 51 52 52 53 54 54 55 55 55 55 56 56 56 56 56 56 57 57 58 58 59 60 60 61 61 60 59 59 58 57 56 55 54 53 53 52 51 50 49 48 47 46
19 18 18 18 18 19 19 20 20 21 22 23 23 24 24 25 25 26 27 27 28 29 30 31 32 33 34 35 37 38 39 40 41 42 43 45 46 47 48 49 50 51 52 52 53 54 54 54 54 54 54 54 54 54 54 54 54 54 54 54 54 55 55 56 57 58 59 60 61 60 60 59 59 57 56 54 52 51 50 49 48 47 46 45 44
Wind_Direction
210 210 210 210 210 209 209 210 211 212 211 209 208 209 210 209 209 208 206 209 211 212 212 211 212 211 211 211 212 216 219 218 217 217 219 221 223 227 230 232 233 235 238 240 241 239 237 237 238 239 241 243 244 245 246 245 244 246 250 252 255 256 257 258 259 259 262 266 268 271 274 276 280 284 286 288 291 293 295 297 298 300 302 303 306
215 214 214 213 212 211 212 213 214 216 216 214 212 212 213 213 214 213 211 210 211 214 216 216 215 213 212 212 213 217 221 222 221 221 223 225 225 226 229 230 230 232 235 237 239 239 238 237 239 241 242 244 245 245 247 249 250 252 255 258 261 263 263 264 265 265 266 269 273 276 278 280 282 285 287 289 292 295 297 299 300 302 304 305 308
217 218 218 217 216 215 214 215 217 219 220 219 218 217 217 216 216 216 216 215 214 214 216 218 217 216 215 215 214 217 221 223 223 224 226 228 229 229 229 229 230 232 234 236 239 239 237 236 240 244 247 248 248 247 248 251 254 255 258 261 263 265 267 269 271 273 273 273 276 279 282 284 286 288 290 294 297 298 299 300 300 301 303 304 306
219 219 219 220 220 219 218 218 219 220 222 222 222 222 222 220 218 217 218 218 217 217 218 219 220 220 220 220 219 220 221 222 223 224 225 227 228 230 230 229 232 233 234 237 240 239 236 236 241 247 250 251 249 248 248 250 252 254 256 259 262 264 268 272 276 278 278 278 278 279 281 284 286 289 293 296 299 300 300 301 301 301 303 304 305
222 220 220 221 223 223 222 223 223 223 224 225 224 225 225 225 223 221 219 218 218 219 220 221 221 222 223 224 225 226 226 225 225 225 225 226 227 229 230 231 234 236 236 236 237 236 235 237 243 249 251 250 248 246 247 248 249 251 254 257 261 264 268 273 277 279 280 280 278 277 279 282 286 290 293 295 297 298 300 302 302 303 305 305 306
223 221 220 221 222 225 225 225 226 226 227 228 227 227 227 227 227 226 224 221 220 220 220 221 221 222 224 226 228 230 231 229 228 227 228 229 229 229 229 230 233 235 237 237 236 234 233 237 244 249 252 250 248 249 251 252 254 256 258 261 265 267 270 274 278 280 282 282 281 280 281 284 287 290 293 295 297 298 299 301 302 304 305 306 305
227 224 224 223 222 224 226 227 228 228 228 229 230 230 230 229 228 228 228 226 224 223 222 221 222 222 223 225 228 231 232 231 230 230 231 232 232 231 230 230 230 231 232 234 235 234 232 234 240 246 249 249 249 251 253 256 258 261 264 266 268 271 274 276 279 281 283 284 285 285 286 288 290 291 293 295 297 297 298 299 301 302 303 304 305
230 224 224 227 225 224 225 226 228 229 228 229 229 231 232 231 230 229 229 230 229 228 227 226 225 226 226 227 228 230 232 233 233 231 231 233 234 235 234 233 232 232 232 232 234 234 234 235 238 242 246 247 249 252 256 259 261 262 264 266 267 271 273 275 278 280 281 284 285 286 287 289 291 292 293 293 293 293 294 297 300 301 303 304 304
232 227 225 227 227 226 226 227 229 230 229 229 229 230 231 232 232 231 231 231 231 231 230 230 230 230 230 231 232 233 234 236 238 237 236 236 236 237 237 238 237 237 237 236 236 236 236 237 238 241 243 246 248 252 256 260 262 263 265 267 269 271 273 275 278 279 281 282 283 284 285 287 288 289 289 289 288 289 292 295 298 300 302 304 304
236 233 230 230 230 229 229 228 229 230 231 230 229 230 231 232 233 233 233 233 233 232 232 232 232 232 233 235 236 237 238 239 241 243 243 243 242 241 241 241 242 243 243 244 244 244 243 243 243 243 245 246 248 250 253 257 260 263 264 267 269 271 273 275 277 279 282 283 285 286 287 289 289 288 288 289 289 290 292 294 296 298 300 302 304
235 236 236 235 234 233 231 230 231 230 230 230 230 230 230 231 232 233 234 234 234 234 234 234 234 234 234 236 238 240 241 241 242 244 245 247 248 249 248 246 246 246 246 248 249 250 251 252 252 252 253 253 253 253 254 256 259 261 263 266 269 272 274 276 278 280 283 284 286 287 288 289 289 290 291 291 291 291 293 294 296 298 299 302 304
233 235 235 233 232 232 231 231 233 231 228 226 228 229 230 231 232 232 233 234 234 234 235 236 236 237 237 239 240 241 241 242 244 246 247 248 249 251 252 252 251 250 249 248 249 250 252 254 256 257 259 260 260 261 261 261 263 264 266 269 271 274 277 279 280 282 283 284 285 287 289 291 291 292 294 293 293 294 295 295 297 298 300 302 304
231 231 231 229 229 230 230 230 231 232 229 225 225 228 230 231 231 232 233 233 234 234 234 235 236 237 238 240 242 243 243 244 246 248 249 251 251 251 252 253 254 254 254 253 252 252 253 254 256 259 260 262 263 264 265 267 268 270 272 273 274 276 278 280 281 282 283 284 286 287 290 290 291 292 293 293 294 295 296 297 298 299 300 301 302
228 228 229 229 228 228 229 229 230 233 235 232 230 229 229 229 230 230 231 232 234 235 235 235 236 236 237 239 242 243 245 246 247 249 250 251 253 254 254 255 256 257 257 257 258 257 257 258 259 260 262 263 265 266 267 269 270 272 274 275 275 276 277 279 281 282 284 286 288 290 291 290 291 292 292 292 293 294 295 296 297 299 300 299 299
223 225 228 230 230 229 231 233 234 235 235 235 234 232 231 230 229 228 227 228 230 233 235 236 237 237 238 240 242 243 245 247 248 250 251 251 252 253 255 256 257 258 259 260 260 259 259 260 261 261 263 264 265 266 268 270 271 272 272 272 273 273 274 277 278 280 282 285 287 289 290 290 291 292 292 292 292 293 293 294 296 298 298 296 296
216 218 225 230 231 229 231 233 235 234 232 233 236 238 238 238 239 237 235 234 235 236 236 236 238 239 240 242 244 245 247 249 250 252 253 254 253 254 255 257 257 259 260 261 261 260 259 259 260 261 262 262 262 263 264 265 266 268 268 269 269 270 272 273 275 276 279 281 282 284 286 287 288 289 290 291 292 293 293 294 297 298 296 295 296
210 209 215 223 224 224 228 230 232 231 231 232 236 240 242 243 246 246 243 239 238 238 238 238 239 241 243 246 249 249 249 250 251 253 255 254 254 255 256 256 256 257 259 262 263 263 261 260 260 261 262 262 262 262 262 262 263 264 265 266 266 267 269 269 271 272 274 277 279 281 283 284 286 287 288 290 291 292 292 294 297 297 295 296 297
208 206 210 218 221 220 223 226 227 227 227 230 234 240 243 243 243 242 239 237 236 238 241 242 242 243 247 250 253 253 253 252 253 254 255 254 254 255 255 255 255 256 258 261 263 264 265 265 263 263 263 263 264 264 263 263 263 264 264 265 265 266 266 267 268 269 271 273 275 278 280 282 284 285 286 288 289 289 290 293 294 293 293 295 297
208 210 213 220 221 216 213 218 224 222 221 223 226 233 239 239 236 234 232 231 234 237 241 245 246 247 250 252 254 255 255 256 256 257 257 255 253 253 255 256 256 257 258 261 263 266 267 268 267 266 266 266 266 266 266 266 266 266 266 267 266 266 266 266 268 269 270 272 274 276 278 280 282 284 285 286 287 287 288 289 290 290 291 293 294
208 213 217 223 225 218 209 213 221 226 227 226 223 227 235 239 238 234 226 223 227 232 236 240 244 246 248 250 252 255 256 258 259 260 259 257 255 255 257 258 259 260 261 261 263 266 268 267 266 266 267 267 267 268 269 269 269 268 268 268 268 268 268 268 269 271 272 274 275 276 277 278 280 281 283 284 285 285 286 286 287 288 290 292 293
218 219 221 227 234 234 219 215 221 229 237 241 238 238 243 247 249 246 236 227 229 232 234 238 240 242 245 249 254 257 259 261 262 263 262 261 260 260 262 264 264 263 263 262 262 266 269 268 266 266 266 267 267 269 270 271 271 271 271 271 271 271 271 271 272 272 274 275 275 275 276 277 277 278 280 282 283 284 285 285 286 287 289 291 292
224 226 226 228 234 234 225 220 225 231 236 240 241 243 246 245 246 247 243 236 234 235 238 242 243 245 247 251 254 257 257 259 263 266 266 265 262 261 263 268 268 266 264 265 265 268 271 271 270 270 269 269 270 271 272 272 272 273 273 273 274 274 274 273 273 274 275 275 276 277 277 277 278 279 280 281 282 283 283 285 286 287 288 290 291
213 216 214 215 219 218 213 213 219 225 229 231 233 236 236 232 231 233 230 224 223 223 226 232 237 242 245 248 252 254 254 254 257 259 261 262 258 254 256 262 266 266 267 268 270 272 273 275 276 275 274 274 275 275 276 275 275 276 277 279 280 280 280 279 278 278 279 279 279 280 281 281 282 282 283 283 283 284 284 285 287 288 289 290 292
202 200 194 196 200 199 196 200 207 211 215 218 219 220 221 218 218 221 221 221 222 221 216 217 226 237 242 248 254 257 255 255 253 251 250 250 249 248 251 257 262 265 266 268 269 271 273 275 278 277 276 275 275 275 275 275 275 275 276 278 280 281 282 283 283 283 283 283 283 284 284 285 285 286 286 286 286 286 286 287 288 289 290 291 293
210 210 204 206 209 202 201 209 215 214 214 218 220 222 226 230 234 240 244 247 250 251 247 244 248 256 260 262 266 269 269 268 265 259 254 253 252 254 257 260 264 267 269 269 269 269 270 272 275 276 277 277 278 277 277 277 276 276 276 277 277 277 278 280 281 282 283 284 284 284 284 285 286 286 287 287 288 288 288 288 289 290 291 292 294
232 234 232 234 238 237 234 238 242 241 240 241 242 245 250 254 257 261 262 263 265 268 269 270 271 272 273 274 275 276 278 279 280 281 280 279 278 276 275 275 276 277 277 276 276 275 275 276 278 279 281 282 283 283 283 282 282 282 282 282 281 280 279 279 280 281 282 283 283 282 282 283 284 286 287 288 288 289 289 289 290 291 292 293 294
244 247 248 248 249 250 251 252 254 257 259 258 259 261 263 265 267 269 271 273 274 276 277 278 279 280 281 282 282 282 283 284 285 285 286 286 286 286 285 284 284 284 283 283 283 284 284 284 285 286 286 287 288 289 289 290 290 290 290 290 290 289 287 286 285 284 285 285 286 284 282 281 282 284 286 287 288 288 288 289 289 290 292 293 294
250 251 252 254 255 255 256 258 259 262 265 265 266 266 266 267 269 270 272 275 277 279 281 282 284 285 286 287 287 286 286 285 285 285 285 285 285 284 284 283 283 283 284 284 285 286 287 287 288 289 290 291 291 292 292 292 293 293 294 294 295 296 296 295 294 292 291 291 292 291 288 285 284 283 283 285 287 287 287 288 288 290 292 293 294
253 254 255 255 257 258 259 261 262 264 266 268 269 269 269 270 270 270 272 273 275 277 279 280 282 283 283 284 284 284 284 285 285 285 285 285 285 285 284 284 284 284 284 284 284 285 285 286 287 288 289 289 290 290 291 290 290 291 291 291 292 293 294 295 295 296 296 297 297 296 295 293 292 289 287 286 287 287 287 287 288 289 290 291 292
254 255 255 255 257 258 260 262 264 265 267 269 270 272 272 271 271 271 272 273 274 275 277 278 279 280 280 281 281 282 282 283 284 284 284 284 284 284 284 284 285 285 285 285 284 284 284 284 285 285 285 285 286 286 286 286 286 286 286 287 287 288 289 290 291 292 293 294 295 296 296 296 295 295 294 293 293 292 291 290 290 289 289 289 289
257 258 258 258 259 259 260 262 263 265 266 268 269 270 271 272 272 273 273 274 275 275 276 277 278 279 279 280 280 281 281 282 282 282 282 281 281 282 281 281 282 282 283 283 283 284 284 283 283 283 283 283 283 283 283 283 282 282 282 282 283 283 284 285 285 286 287 288 289 290 291 292 293 294 295 295 294 294 293 293 292 292 292 291 290
255 257 259 259 260 261 261 262 262 263 265 265 266 267 268 270 271 272 273 274 274 274 274 275 276 276 277 277 277 277 276 276 276 276 275 275 275 276 276 277 277 278 279 281 282 283 284 284 285 285 285 285 285 285 285 285 285 284 284 283 283 283 283 283 283 284 284 284 285 285 285 286 288 289 290 290 290 290 291 291 291 292 292 292 292
254 255 256 256 257 258 259 261 262 262 263 264 264 266 267 269 270 271 272 272 273 273 273 274 274 275 275 275 275 275 274 273 272 271 271 271 271 272 272 274 275 276 278 279 281 283 284 285 286 287 287 287 287 287 288 288 288 288 288 288 288 287 287 287 287 286 286 286 285 285 284 284 285 286 286 287 287 287 287 287 288 288 289 290 290
255 255 255 255 255 256 257 259 260 261 262 263 264 265 266 267 269 270 271 273 273 274 275 275 275 275 275 275 274 274 273 272 271 270 270 270 271 272 274 275 276 278 279 280 280 281 282 283 285 286 288 289 290 290 290 290 291 291 292 292 293 293 293 293 293 293 293 293 292 291 290 289 288 287 287 287 287 287 287 287 286 286 286 286 287
254 255 255 255 256 256 256 257 259 260 262 263 264 265 265 266 268 269 271 272 273 274 276 276 277 276 275 275 274 273 273 273 274 275 276 277 279 280 280 280 281 282 283 284 285 285 285 285 286 286 287 288 289 290 291 292 292 293 293 293 293 294 294 295 295 296 296 297 297 296 296 295 294 292 291 290 290 290 290 289 288 287 286 286 285
253 252 251 252 253 254 255 256 257 258 260 261 262 263 264 265 267 269 270 272 274 275 276 276 276 276 277 277 278 278 279 280 281 282 284 285 287 287 287 287 287 287 287 287 288 289 290 290 291 290 290 290 290 290 291 291 292 292 292 293 293 293 294 294 294 295 295 295 296 297 297 297 297 296 295 293 292 292 292 292 291 290 289 288 287
251 248 247 248 250 252 254 255 256 257 257 258 259 261 262 263 264 266 268 269 271 274 276 277 278 278 278 280 281 282 283 284 285 286 287 288 289 290 290 290 290 290 290 289 289 289 290 291 292 292 293 293 293 294 294 293 293 293 294 294 295 295 295 295 295 295 295 295 295 296 296 297 297 297 296 296 295 294 293 292 292 292 291 291 290
248 246 245 246 248 250 252 254 255 256 257 257 257 258 259 260 262 264 266 268 269 271 273 276 278 280 282 283 284 284 285 285 286 287 288 289 289 290 291 291 291 292 292 292 292 291 291 291 292 292 293 294 295 295 295 295 295 295 295 295 296 296 296 296 296 297 297 297 297 297 297 297 297 297 297 296 296 295 295 294 293 292 292 291 291
245 244 244 246 247 248 249 251 252 254 254 255 256 257 258 260 262 265 267 269 270 272 273 275 277 278 280 282 283 284 285 285 286 287 287 288 288 289 290 291 291 292 292 293 293 293 293 293 293 293 294 294 294 294 294 294 294 294 294 294 295 295 296 296 297 297 297 297 297 297 297 297 298 298 298 297 297 296 296 295 295 294 293 292 291
243 244 245 246 247 247 248 249 251 252 253 254 256 258 260 262 264 267 268 270 271 273 275 276 277 277 278 279 281 282 283 284 285 286 287 287 288 288 289 289 290 290 290 291 291 292 292 292 292 293 293 293 293 294 294 294 294 294 294 294 293 293 293 294 294 295 296 296 297 297 297 297 297 297 297 298 298 297 297 297 296 296 295 294 293
243 244 245 246 247 248 249 250 252 253 254 257 259 261 263 266 267 269 270 271 272 274 274 275 276 277 278 279 279 280 281 282 283 285 286 287 288 288 288 289 289 289 290 290 290 291 291 291 291 291 292 292 292 293 293 293 294 294 294 294 294 294 293 293 293 293 293 294 295 296 296 297 297 296 296 297 297 297 297 297 297 297 296 296 295
244 244 245 247 249 250 252 253 255 256 258 260 261 263 266 268 269 270 271 272 273 274 275 275 276 277 278 279 280 281 282 283 284 285 285 286 287 288 288 289 290 290 291 292 292 292 292 292 292 292 292 292 292 293 293 293 294 294 294 294 295 295 295 294 294 293 293 293 293 294 295 296 296 296 296 296 296 296 296 296 297 297 297 296 296
244 245 248 250 252 254 255 256 257 259 260 261 263 264 266 267 268 269 270 271 273 274 275 276 277 278 279 280 281 283 284 285 286 287 287 288 288 289 289 289 290 291 292 293 293 294 294 294 294 294 294 294 294 294 294 294 294 294 295 295 295 295 295 295 295 295 295 294 294 294 294 295 295 296 296 296 296 296 295 296 296 296 296 296 296
245 247 251 253 253 254 255 256 257 259 260 261 263 264 265 266 268 270 271 272 274 275 277 278 279 280 281 282 283 284 286 287 287 288 289 290 291 291 291 291 292 292 293 294 294 294 294 294 294 295 295 295 296 296 296 296 296 296 296 296 296 295 295 294 294 295 295 295 295 295 295 295 295 295 295 295 295 295 295 295 295 295 294 294 294
246 249 251 252 252 253 254 255 257 259 260 262 264 265 267 269 270 272 274 275 277 278 279 281 283 284 286 287 288 289 290 290 291 291 292 292 293 293 293 293 294 294 295 296 296 295 295 295 295 295 295 295 296 296 296 297 297 297 297 296 296 296 295 295 295 295 294 294 295 295 295 296 296 295 295 294 294 294 294 294 294 294 293 293 293
245 247 248 249 251 252 254 256 258 260 262 264 267 268 270 272 274 275 277 278 280 281 283 284 285 286 287 288 289 290 291 291 292 292 293 293 293 294 294 294 294 295 296 296 295 295 296 296 296 296 296 296 296 296 296 296 296 296 296 296 295 295 295 295 295 295 294 294 294 294 295 295 295 295 295 294 294 293 293 292 292 292 292 292 292
243 244 246 248 250 253 256 258 260 263 265 267 269 270 272 274 276 278 279 281 282 283 284 285 286 287 287 288 289 289 290 290 291 291 292 292 292 293 293 293 293 294 294 294 294 294 294 294 295 295 295 295 296 296 296 296 295 295 295 295 295 294 295 294 295 294 294 294 294 294 294 294 294 294 293 293 293 293 292 291 291 290 290 290 290
244 245 247 249 251 254 256 258 261 263 266 268 270 273 275 276 278 280 281 282 283 284 285 286 286 287 288 288 289 290 290 291 291 292 292 292 292 292 293 293 293 292 292 292 292 293 293 293 293 293 293 293 293 293 293 294 294 294 294 294 294 294 294 294 294 294 294 294 294 294 294 294 293 293 293 292 292 292 291 291 290 289 289 288 288
244 245 247 250 252 254 257 259 262 265 269 271 274 276 278 279 281 282 282 283 284 285 285 286 287 288 289 289 290 291 291 292 292 293 293 293 293 293 293 292 292 292 292 292 292 292 291 291 291 291 291 291 291 291 291 291 291 291 291 291 291 292 293 293 293 294 294 294 294 294 293 293 293 293 293 292 292 291 291 290 289 289 288 288 287
243 245 247 250 253 256 260 264 267 271 274 276 278 280 281 281 282 283 284 285 286 286 287 288 289 290 291 291 292 292 292 293 293 293 293 292 292 292 292 292 291 291 291 291 291 291 290 290 290 290 290 289 289 289 289 289 289 289 289 289 289 289 290 290 291 292 292 293 293 294 294 294 294 294 293 293 292 291 290 289 289 288 287 286 286
243 245 248 252 256 261 266 270 274 276 279 280 280 281 282 283 285 286 286 287 288 289 290 291 291 292 292 292 292 292 292 292 292 292 292 292 292 292 291 291 291 290 290 290 290 289 289 289 289 288 288 288 288 288 288 288 288 288 288 288 288 288 288 288 289 289 290 291 292 292 293 294 294 294 294 293 292 290 289 288 287 286 285 284 284
Height
3232 3234 3235 3236 3237 3239 3240 3241 3242 3243 3243 3244 3245 3246 3246 3247 3248 3249 3250 3251 3251 3252 3253 3254 3254 3255 3256 3257 3258 3258 3259 3259 3259 3260 3261 3261 3262 3262 3263 3264 3265 3265 3266 3266 3267 3267 3267 3268 3268 3269 3269 3270 3270 3270 3271 3271 3271 3271 3271 3272 3272 3272 3272 3272 3272 3272 3272 3272 3271 3271 3270 3270 3269 3268 3267 3267 3266 3265 3264 3263 3262 3261 3260 3259 3258
3231 3232 3233 3235 3236 3237 3238 3240 3241 3242 3243 3244 3244 3245 3246 3246 3247 3248 3249 3249 3250 3251 3252 3253 3254 3254 3255 3256 3257 3257 3258 3258 3259 3259 3260 3260 3261 3261 3262 3263 3263 3264 3264 3265 3265 3266 3266 3267 3267 3267 3268 3268 3269 3269 3269 3270 3270 3270 3270 3270 3270 3270 3270 3270 3270 3271 3271 3270 3270 3269 3268 3268 3267 3266 3265 3265 3264 3263 3263 3261 3260 3259 3258 3257 3256
3229 3230 3232 3233 3234 3235 3236 3238 3239 3240 3241 3243 3244 3244 3245 3245 3246 3247 3247 3248 3249 3250 3251 3252 3253 3254 3254 3255 3256 3256 3257 3258 3258 3259 3259 3260 3260 3260 3261 3262 3262 3263 3263 3263 3264 3264 3265 3265 3266 3266 3267 3267 3267 3267 3268 3268 3268 3269 3269 3269 3269 3269 3269 3269 3269 3269 3269 3269 3268 3268 3267 3266 3265 3264 3264 3263 3262 3261 3261 3260 3259 3258 3256 3255 3255
3227 3228 3229 3231 3232 3234 3235 3236 3237 3238 3240 3241 3242 3243 3244 3244 3245 3245 3246 3247 3248 3249 3250 3251 3252 3253 3254 3254 3255 3255 3256 3257 3257 3258 3259 3259 3260 3260 3260 3261 3261 3262 3262 3262 3263 3263 3264 3264 3264 3265 3265 3266 3266 3266 3266 3266 3267 3267 3267 3267 3267 3267 3267 3267 3267 3267 3267 3267 3267 3266 3265 3265 3264 3263 3262 3261 3261 3260 3259 3258 3257 3256 3255 3254 3253
3224 3226 3227 3229 3230 3232 3233 3234 3235 3237 3238 3239 3240 3241 3242 3243 3244 3244 3245 3246 3247 3248 3249 3250 3251 3252 3253 3253 3254 3255 3255 3256 3256 3257 3258 3258 3259 3259 3259 3260 3260 3261 3261 3261 3261 3262 3262 3263 3263 3263 3264 3264 3264 3264 3265 3265 3265 3265 3265 3265 3265 3265 3265 3265 3265 3265 3265 3265 3265 3265 3264 3263 3263 3261 3260 3260 3259 3258 3257 3256 3255 3255 3254 3253 3251
3222 3223 3225 3226 3228 3230 3231 3232 3233 3235 3236 3237 3238 3239 3240 3241 3242 3243 3244 3245 3246 3246 3247 3248 3249 3250 3251 3252 3253 3254 3254 3255 3255 3256 3257 3257 3258 3258 3258 3259 3259 3259 3260 3260 3260 3261 3261 3261 3262 3262 3262 3263 3263 3263 3263 3263 3263 3264 3264 3263 3263 3264 3264 3263 3263 3263 3263 3263 3263 3263 3262 3262 3261 3260 3258 3258 3257 3256 3255 3255 3254 3253 3252 3251 3250
3220 3221 3222 3223 3225 3227 3228 3230 3231 3232 3233 3234 3236 3237 3238 3239 3240 3241 3242 3243 3244 3245 3246 3247 3248 3248 3249 3250 3251 3252 3253 3254 3254 3255 3255 3256 3256 3257 3257 3258 3258 3258 3258 3259 3259 3259 3260 3260 3260 3261 3261 3261 3261 3261 3261 3262 3262 3262 3262 3262 3262 3262 3262 3262 3261 3261 3261 3261 3261 3261 3260 3260 3259 3258 3257 3256 3255 3253 3253 3252 3252 3251 3250 3250 3248
3217 3219 3220 3221 3222 3224 3225 3227 3228 3230 3231 3232 3233 3234 3235 3236 3237 3238 3240 3241 3242 3243 3244 3245 3246 3247 3248 3249 3250 3251 3252 3252 3253 3253 3254 3254 3255 3255 3256 3256 3257 3257 3257 3258 3258 3258 3259 3259 3259 3259 3260 3260 3260 3260 3260 3260 3260 3260 3260 3260 3260 3260 3260 3260 3260 3260 3259 3259 3259 3259 3259 3258 3258 3257 3255 3254 3253 3252 3251 3250 3249 3249 3248 3248 3247
3214 3216 3217 3218 3220 3221 3223 3224 3225 3227 3228 3229 3230 3231 3233 3234 3235 3236 3237 3238 3239 3241 3242 3244 3245 3246 3247 3248 3248 3249 3250 3251 3252 3252 3252 3253 3253 3254 3254 3255 3255 3256 3256 3257 3257 3257 3257 3258 3258 3258 3258 3258 3258 3259 3259 3259 3259 3259 3259 3258 3258 3258 3258 3258 3258 3258 3258 3257 3257 3257 3257 3256 3256 3255 3254 3253 3251 3250 3249 3248 3247 3246 3246 3245 3245
3210 3213 3215 3216 3217 3219 3220 3221 3222 3224 3225 3227 3228 3229 3230 3231 3232 3233 3234 3235 3236 3238 3240 3241 3242 3244 3245 3246 3246 3247 3248 3249 3250 3250 3251 3252 3252 3252 3253 3253 3254 3255 3255 3256 3256 3256 3256 3257 3257 3257 3257 3257 3257 3257 3257 3257 3257 3257 3257 3257 3257 3257 3257 3257 3256 3256 3256 3256 3255 3255 3255 3255 3254 3253 3252 3251 3250 3248 3247 3246 3245 3244 3243 3243 3243
3207 3210 3212 3214 3215 3216 3217 3218 3219 3220 3222 3223 3225 3226 3227 3228 3229 3230 3231 3232 3234 3235 3237 3238 3239 3241 3242 3243 3244 3245 3245 3246 3247 3248 3249 3250 3250 3251 3252 3252 3252 3253 3254 3254 3255 3255 3255 3255 3256 3256 3256 3256 3256 3256 3256 3256 3256 3256 3256 3256 3256 3255 3255 3255 3255 3254 3254 3254 3254 3253 3253 3253 3252 3251 3250 3249 3248 3247 3245 3244 3243 3242 3241 3240 3240
3205 3207 3208 3210 3211 3213 3214 3215 3216 3217 3218 3220 3221 3222 3223 3225 3226 3227 3228 3230 3231 3232 3234 3235 3237 3238 3239 3241 3241 3242 3242 3244 3245 3246 3246 3247 3248 3249 3250 3250 3251 3251 3252 3252 3253 3253 3253 3254 3254 3254 3255 3255 3255 3255 3255 3254 3254 3254 3254 3254 3254 3254 3254 3253 3253 3253 3252 3252 3251 3251 3251 3250 3250 3249 3248 3247 3246 3245 3244 3242 3241 3240 3239 3238 3237
3201 3202 3204 3205 3206 3208 3209 3211 3213 3214 3216 3217 3218 3219 3220 3221 3222 3224 3225 3227 3228 3229 3231 3232 3233 3235 3236 3237 3238 3239 3240 3241 3242 3243 3244 3245 3246 3247 3248 3248 3249 3249 3250 3250 3250 3251 3251 3251 3252 3252 3252 3253 3253 3253 3253 3252 3252 3252 3252 3252 3252 3252 3251 3251 3251 3250 3250 3249 3249 3249 3249 3248 3247 3247 3246 3244 3243 3242 3241 3240 3239 3238 3237 3236 3234
3197 3198 3200 3202 3203 3204 3205 3208 3210 3213 3215 3216 3216 3216 3216 3217 3218 3220 3221 3223 3225 3226 3228 3229 3230 3232 3233 3234 3235 3236 3238 3239 3240 3241 3242 3243 3243 3244 3245 3246 3246 3247 3247 3248 3248 3248 3249 3249 3249 3250 3250 3250 3250 3250 3250 3250 3250 3250 3250 3250 3250 3250 3249 3249 3249 3248 3247 3247 3246 3246 3246 3245 3244 3244 3243 3242 3240 3239 3238 3237 3236 3235 3234 3232 3231
3194 3196 3198 3199 3201 3203 3204 3207 3208 3210 3212 3212 3212 3211 3211 3211 3213 3215 3217 3219 3221 3223 3225 3226 3228 3229 3230 3231 3232 3233 3235 3236 3237 3238 3239 3240 3240 3241 3242 3242 3243 3244 3245 3245 3246 3246 3246 3247 3247 3247 3248 3248 3247 3247 3248 3248 3248 3248 3248 3248 3248 3248 3247 3247 3246 3245 3245 3244 3244 3243 3243 3242 3241 3241 3240 3239 3237 3236 3235 3234 3233 3232 3230 3229 3228
3191 3194 3195 3197 3199 3201 3203 3204 3205 3206 3206 3207 3208 3208 3209 3210 3212 3214 3216 3219 3221 3222 3223 3224 3225 3226 3227 3228 3229 3231 3232 3233 3234 3235 3236 3237 3238 3238 3239 3239 3240 3241 3242 3242 3243 3243 3244 3244 3244 3245 3245 3245 3245 3245 3245 3245 3245 3245 3245 3245 3245 3245 3245 3244 3244 3243 3242 3241 3240 3240 3239 3239 3238 3237 3237 3236 3234 3233 3231 3231 3231 3229 3227 3225 3225
3188 3191 3193 3195 3197 3198 3200 3201 3201 3201 3203 3204 3206 3207 3208 3210 3212 3214 3215 3217 3219 3220 3221 3221 3222 3223 3225 3226 3227 3228 3229 3230 3231 3232 3233 3234 3235 3235 3236 3236 3237 3238 3238 3239 3240 3240 3241 3241 3241 3242 3242 3242 3242 3242 3241 3241 3241 3241 3242 3242 3242 3242 3242 3241 3240 3239 3239 3238 3237 3236 3236 3235 3235 3234 3234 3233 3231 3230 3227 3227 3227 3226 3223 3222 3221
3187 3189 3191 3193 3194 3194 3196 3197 3197 3198 3200 3202 3204 3205 3206 3208 3210 3211 3212 3213 3215 3217 3218 3219 3219 3220 3221 3222 3223 3224 3225 3227 3228 3229 3230 3231 3232 3232 3233 3234 3234 3235 3236 3236 3237 3237 3238 3238 3238 3238 3238 3238 3238 3238 3238 3238 3238 3238 3238 3238 3238 3238 3238 3238 3236 3236 3235 3235 3234 3233 3232 3232 3231 3231 3231 3230 3229 3227 3224 3224 3223 3222 3220 3219 3218
3187 3188 3190 3190 3190 3190 3192 3193 3194 3196 3198 3200 3201 3203 3203 3204 3205 3207 3209 3211 3212 3213 3214 3215 3216 3217 3219 3219 3220 3221 3222 3223 3224 3225 3226 3227 3228 3229 3230 3231 3231 3232 3233 3233 3234 3234 3235 3235 3235 3235 3235 3235 3235 3235 3235 3235 3234 3234 3234 3234 3234 3234 3234 3233 3233 3232 3232 3231 3231 3230 3229 3229 3228 3227 3227 3226 3225 3223 3222 3220 3219 3218 3216 3216 3215
3185 3186 3188 3188 3188 3189 3192 3193 3193 3194 3195 3197 3199 3201 3201 3201 3202 3204 3206 3208 3209 3211 3212 3213 3214 3215 3216 3216 3216 3217 3219 3220 3221 3221 3222 3223 3224 3226 3226 3227 3228 3228 3229 3229 3230 3230 3231 3231 3231 3232 3231 3231 3231 3231 3231 3231 3231 3231 3231 3230 3230 3230 3229 3229 3229 3229 3228 3227 3227 3226 3226 3225 3225 3224 3223 3222 3221 3220 3218 3217 3216 3214 3213 3212 3212
3182 3184 3186 3186 3187 3189 3191 3192 3192 3193 3194 3195 3197 3198 3199 3199 3200 3202 3204 3206 3207 3208 3210 3211 3212 3212 3212 3212 3213 3214 3215 3216 3217 3218 3219 3219 3221 3222 3223 3223 3224 3224 3224 3225 3225 3226 3227 3227 3227 3228 3228 3227 3227 3227 3227 3227 3227 3227 3227 3226 3226 3226 3226 3225 3225 3225 3224 3223 3223 3223 3222 3221 3221 3220 3219 3219 3218 3217 3215 3214 3213 3212 3210 3209 3208
3181 3182 3183 3184 3186 3187 3189 3190 3191 3191 3192 3194 3195 3196 3197 3198 3198 3199 3201 3203 3204 3205 3207 3208 3209 3209 3209 3210 3210 3211 3212 3213 3214 3215 3215 3215 3216 3217 3218 3219 3220 3220 3220 3220 3221 3222 3223 3223 3223 3224 3224 3223 3223 3223 3223 3223 3222 3222 3222 3222 3222 3222 3222 3221 3221 3221 3220 3219 3219 3218 3218 3217 3217 3216 3215 3215 3214 3213 3212 3211 3210 3209 3207 3206 3205
3180 3181 3182 3183 3184 3186 3187 3188 3189 3190 3191 3192 3193 3194 3195 3196 3197 3197 3198 3199 3201 3202 3203 3205 3206 3207 3207 3207 3208 3209 3210 3211 3211 3212 3212 3212 3213 3214 3215 3216 3216 3216 3216 3216 3217 3218 3218 3219 3219 3219 3220 3219 3219 3219 3218 3218 3218 3218 3217 3217 3217 3217 3217 3217 3216 3216 3216 3215 3215 3214 3213 3212 3212 3211 3211 3210 3210 3209 3208 3207 3206 3205 3204 3203 3202
3179 3180 3181 3182 3183 3184 3185 3186 3187 3189 3190 3191 3192 3193 3194 3195 3195 3196 3197 3198 3199 3199 3201 3203 3204 3205 3205 3206 3206 3207 3208 3209 3209 3209 3210 3210 3210 3211 3212 3212 3212 3212 3212 3213 3213 3214 3214 3215 3215 3215 3215 3215 3215 3215 3214 3214 3214 3213 3213 3213 3213 3213 3212 3212 3212 3211 3211 3211 3210 3209 3209 3208 3208 3207 3206 3206 3205 3204 3204 3203 3202 3201 3200 3199 3199
3178 3179 3180 3181 3183 3184 3185 3186 3187 3188 3189 3190 3191 3191 3192 3193 3194 3195 3196 3197 3197 3198 3199 3201 3202 3203 3204 3204 3205 3206 3207 3207 3208 3208 3208 3208 3208 3209 3209 3209 3209 3209 3209 3209 3210 3210 3211 3211 3211 3211 3211 3211 3210 3210 3210 3210 3209 3209 3209 3209 3208 3208 3208 3207 3207 3207 3206 3206 3205 3205 3204 3204 3203 3203 3202 3202 3201 3200 3199 3198 3198 3197 3196 3196 3195
3177 3178 3179 3180 3181 3183 3184 3185 3185 3186 3187 3188 3189 3190 3190 3191 3192 3193 3194 3195 3196 3196 3197 3198 3200 3201 3202 3202 3203 3204 3204 3205 3205 3205 3205 3205 3205 3206 3206 3206 3206 3206 3206 3207 3207 3207 3207 3207 3207 3207 3207 3206 3206 3206 3206 3206 3205 3205 3204 3204 3203 3203 3203 3202 3202 3202 3201 3201 3200 3200 3199 3198 3198 3198 3197 3197 3196 3196 3195 3194 3193 3193 3192 3192 3191
3175 3176 3177 3179 3180 3181 3182 3183 3184 3185 3185 3186 3187 3188 3188 3189 3190 3191 3192 3192 3193 3194 3195 3196 3197 3198 3199 3199 3200 3201 3201 3202 3202 3202 3202 3202 3202 3202 3203 3203 3203 3203 3203 3203 3203 3203 3203 3203 3203 3203 3202 3202 3202 3202 3201 3201 3201 3200 3200 3199 3198 3198 3198 3197 3197 3197 3196 3196 3196 3195 3194 3193 3193 3193 3192 3192 3192 3191 3190 3190 3189 3188 3187 3187 3187
3173 3174 3175 3177 3178 3179 3180 3181 3182 3183 3183 3184 3185 3186 3187 3188 3189 3189 3190 3190 3191 3191 3192 3193 3194 3195 3195 3196 3196 3197 3197 3198 3198 3198 3199 3199 3199 3199 3199 3199 3199 3199 3199 3199 3199 3199 3198 3198 3198 3198 3197 3197 3197 3197 3197 3197 3196 3196 3196 3195 3195 3194 3194 3193 3193 3192 3191 3191 3191 3190 3189 3189 3188 3188 3187 3187 3187 3186 3185 3185 3184 3183 3183 3182 3182
3171 3172 3173 3174 3176 3177 3178 3179 3180 3181 3181 3182 3183 3183 3184 3185 3186 3187 3188 3188 3189 3189 3190 3190 3191 3192 3192 3193 3193 3193 3194 3194 3194 3194 3194 3195 3195 3195 3195 3195 3195 3195 3195 3195 3194 3194 3194 3193 3193 3193 3193 3192 3192 3192 3192 3192 3192 3191 3191 3191 3190 3190 3190 3189 3189 3188 3187 3187 3186 3185 3185 3184 3184 3183 3183 3182 3182 3181 3180 3180 3179 3178 3178 3177 3177
3169 3170 3171 3172 3173 3174 3175 3176 3177 3178 3179 3179 3180 3180 3181 3182 3183 3184 3185 3186 3187 3187 3188 3188 3189 3189 3190 3190 3190 3190 3190 3190 3191 3191 3190 3191 3191 3191 3191 3191 3191 3191 3191 3191 3190 3190 3190 3190 3189 3189 3189 3189 3188 3188 3188 3188 3187 3187 3186 3186 3186 3185 3185 3185 3184 3184 3183 3182 3181 3181 3180 3180 3179 3179 3178 3178 3178 3177 3176 3175 3174 3173 3172 3171 3171
3166 3167 3168 3169 3170 3171 3172 3173 3174 3175 3176 3176 3177 3177 3178 3178 3179 3180 3181 3182 3183 3184 3185 3185 3185 3186 3186 3186 3186 3187 3187 3187 3187 3187 3187 3187 3187 3187 3188 3188 3187 3187 3187 3187 3186 3186 3186 3186 3186 3186 3185 3185 3185 3184 3184 3184 3183 3183 3182 3182 3181 3180 3180 3180 3179 3179 3178 3178 3177 3176 3175 3175 3174 3174 3174 3173 3173 3172 3171 3170 3169 3168 3167 3167 3166
3164 3165 3166 3166 3167 3168 3169 3170 3171 3172 3172 3173 3173 3174 3174 3175 3175 3176 3177 3178 3179 3180 3181 3181 3182 3182 3182 3182 3183 3183 3183 3183 3184 3184 3184 3184 3184 3184 3184 3184 3184 3184 3184 3183 3183 3182 3182 3182 3182 3182 3181 3181 3181 3180 3180 3179 3179 3179 3178 3178 3177 3176 3175 3175 3174 3174 3173 3173 3172 3171 3171 3170 3169 3169 3169 3168 3167 3167 3166 3165 3164 3163 3163 3162 3161
3161 3162 3163 3164 3165 3166 3166 3167 3168 3169 3169 3170 3170 3171 3171 3171 3172 3172 3173 3174 3174 3175 3176 3177 3177 3178 3178 3178 3178 3179 3179 3179 3180 3180 3180 3181 3181 3181 3181 3181 3181 3181 3180 3180 3179 3179 3178 3178 3178 3177 3177 3177 3177 3176 3176 3175 3175 3174 3174 3173 3173 3172 3171 3170 3170 3169 3168 3168 3167 3166 3165 3165 3165 3164 3163 3162 3161 3161 3161 3160 3159 3158 3157 3157 3156
3159 3160 3160 3161 3162 3163 3164 3164 3165 3165 3166 3166 3167 3167 3168 3168 3168 3169 3169 3169 3170 3171 3171 3172 3173 3174 3174 3174 3175 3175 3175 3175 3176 3176 3176 3177 3177 3177 3177 3177 3177 3177 3177 3176 3176 3176 3175 3175 3174 3174 3173 3173 3172 3172 3171 3171 3171 3170 3170 3169 3168 3168 3167 3166 3165 3164 3163 3162 3162 3161 3160 3159 3159 3159 3158 3157 3156 3155 3154 3154 3153 3152 3151 3150 3150
3156 3157 3158 3159 3159 3160 3161 3161 3162 3162 3163 3163 3164 3164 3165 3165 3165 3165 3166 3166 3167 3167 3168 3169 3169 3170 3170 3171 3171 3171 3171 3171 3172 3172 3172 3173 3173 3173 3173 3173 3173 3173 3173 3173 3172 3172 3172 3171 3171 3170 3170 3169 3168 3168 3167 3166 3166 3166 3165 3165 3164 3163 3162 3162 3161 3160 3159 3158 3157 3156 3155 3154 3153 3153 3152 3151 3150 3149 3148 3148 3147 3146 3145 3144 3143
3153 3154 3155 3156 3156 3157 3158 3158 3159 3159 3160 3160 3161 3161 3162 3162 3163 3163 3163 3164 3164 3164 3165 3165 3166 3166 3167 3167 3167 3168 3168 3168 3168 3168 3168 3169 3169 3169 3169 3169 3169 3169 3169 3169 3169 3168 3167 3167 3167 3166 3165 3165 3164 3163 3163 3162 3162 3161 3160 3160 3159 3158 3158 3157 3156 3155 3154 3153 3152 3151 3150 3149 3148 3147 3146 3145 3145 3144 3143 3142 3141 3140 3139 3138 3137
3150 3151 3152 3152 3153 3154 3154 3155 3156 3157 3157 3158 3158 3159 3159 3160 3160 3161 3161 3161 3162 3162 3162 3162 3163 3163 3164 3164 3164 3164 3164 3164 3164 3164 3165 3165 3165 3165 3165 3165 3165 3165 3165 3164 3164 3164 3163 3163 3162 3161 3160 3160 3159 3159 3158 3157 3157 3156 3155 3155 3154 3153 3152 3151 3151 3150 3149 3148 3147 3146 3145 3144 3143 3141 3140 3140 3139 3138 3137 3136 3135 3134 3133 3132 3131
3146 3147 3148 3149 3150 3150 3151 3152 3153 3153 3154 3155 3155 3156 3156 3157 3158 3158 3158 3159 3159 3159 3159 3159 3159 3160 3160 3161 3161 3161 3161 3161 3161 3161 3161 3161 3161 3161 3161 3160 3160 3160 3160 3159 3159 3159 3158 3158 3157 3156 3156 3155 3155 3154 3153 3153 3152 3151 3150 3149 3149 3148 3147 3146 3145 3144 3143 3143 3141 3140 3139 3138 3137 3136 3135 3134 3133 3132 3131 3130 3129 3128 3128 3127 3125
3143 3144 3145 3146 3146 3147 3148 3149 3150 3150 3151 3152 3153 3153 3154 3155 3155 3156 3156 3156 3156 3156 3157 3157 3157 3157 3157 3158 3158 3157 3157 3157 3157 3157 3157 3157 3157 3157 3156 3156 3156 3156 3155 3155 3154 3154 3153 3153 3152 3152 3151 3150 3150 3149 3148 3147 3147 3146 3145 3145 3144 3143 3141 3140 3139 3139 3138 3137 3136 3135 3133 3132 3131 3130 3129 3128 3127 3126 3125 3124 3123 3122 3121 3121 3120
3140 3141 3142 3142 3143 3144 3145 3146 3146 3147 3148 3149 3150 3150 3151 3152 3152 3153 3153 3153 3153 3153 3154 3154 3154 3153 3154 3154 3154 3154 3153 3153 3153 3153 3153 3153 3153 3153 3152 3152 3152 3151 3151 3151 3150 3149 3149 3148 3148 3147 3146 3146 3145 3144 3143 3142 3141 3141 3140 3139 3139 3138 3137 3136 3134 3133 3132 3131 3130 3129 3128 3126 3125 3124 3123 3121 3120 3119 3118 3117 3117 3116 3115 3114 3113
3137 3138 3139 3140 3140 3141 3142 3143 3144 3144 3145 3146 3147 3147 3148 3148 3149 3149 3149 3150 3150 3150 3150 3150 3150 3150 3150 3150 3150 3150 3149 3149 3149 3149 3149 3148 3148 3148 3148 3147 3147 3147 3147 3146 3146 3145 3144 3144 3143 3142 3141 3141 3140 3139 3138 3137 3136 3135 3134 3133 3132 3132 3131 3130 3129 3128 3127 3126 3124 3123 3122 3120 3119 3118 3117 3115 3114 3112 3111 3110 3109 3109 3107 3107 3106
3134 3135 3136 3137 3138 3138 3139 3140 3141 3142 3142 3143 3144 3144 3144 3145 3145 3145 3146 3146 3146 3146 3146 3146 3146 3146 3146 3146 3146 3146 3145 3145 3145 3145 3145 3144 3144 3143 3143 3142 3142 3141 3141 3141 3141 3140 3139 3138 3138 3137 3136 3135 3134 3134 3133 3131 3130 3129 3128 3127 3126 3125 3124 3123 3123 3122 3121 3120 3119 3117 3116 3114 3113 3111 3110 3109 3107 3106 3105 3104 3102 3101 3100 3099 3098
3131 3132 3133 3134 3135 3135 3136 3137 3138 3139 3139 3140 3140 3141 3141 3141 3142 3142 3142 3142 3143 3143 3143 3142 3142 3142 3142 3142 3142 3142 3141 3141 3140 3140 3140 3139 3139 3138 3137 3137 3136 3136 3136 3135 3135 3134 3133 3132 3132 3131 3130 3129 3128 3127 3126 3125 3124 3123 3122 3121 3120 3119 3117 3116 3115 3114 3113 3113 3112 3111 3109 3108 3107 3105 3103 3101 3100 3099 3098 3097 3096 3094 3093 3092 3091
3128 3129 3130 3131 3132 3132 3133 3134 3135 3135 3136 3136 3137 3137 3138 3138 3138 3138 3138 3139 3139 3139 3139 3138 3138 3138 3138 3137 3137 3137 3136 3136 3135 3135 3134 3134 3133 3133 3132 3131 3131 3130 3130 3129 3128 3128 3127 3126 3125 3124 3124 3123 3121 3120 3119 3118 3116 3115 3114 3113 3112 3111 3110 3109 3108 3107 3106 3105 3104 3103 3102 3101 3100 3098 3097 3095 3093 3091 3090 3090 3089 3087 3086 3085 3084
3125 3126 3127 3128 3128 3129 3130 3131 3131 3132 3132 3133 3133 3134 3134 3134 3134 3134 3134 3134 3134 3134 3134 3134 3134 3134 3133 3133 3132 3131 3131 3130 3130 3129 3129 3128 3128 3127 3126 3125 3124 3124 3123 3122 3121 3120 3120 3119 3118 3117 3117 3116 3115 3114 3112 3111 3109 3108 3106 3105 3104 3102 3101 3101 3100 3099 3098 3097 3096 3095 3095 3093 3092 3091 3089 3088 3086 3084 3083 3082 3081 3080 3079 3078 3077
3122 3123 3124 3125 3125 3126 3127 3128 3128 3129 3129 3130 3130 3130 3130 3130 3130 3130 3131 3130 3130 3130 3130 3130 3130 3129 3129 3128 3128 3127 3126 3126 3125 3124 3123 3123 3122 3121 3120 3119 3119 3118 3117 3116 3115 3114 3113 3112 3111 3109 3108 3107 3106 3106 3105 3104 3102 3101 3099 3097 3095 3094 3093 3092 3091 3090 3089 3088 3088 3087 3086 3085 3084 3083 3081 3080 3078 3077 3076 3074 3073 3072 3071 3070 3069
3119 3120 3121 3122 3122 3123 3124 3125 3125 3126 3126 3127 3127 3127 3127 3127 3127 3127 3127 3127 3127 3127 3126 3126 3126 3125 3124 3124 3123 3123 3122 3121 3120 3120 3119 3118 3117 3116 3115 3114 3113 3112 3111 3110 3109 3107 3106 3105 3104 3103 3101 3100 3098 3097 3096 3095 3094 3093 3091 3089 3087 3085 3084 3083 3082 3081 3080 3079 3079 3078 3077 3077 3076 3075 3073 3072 3070 3069 3067 3066 3065 3064 3063 3062 3060
3116 3117 3118 3119 3120 3121 3121 3122 3122 3123 3123 3124 3124 3124 3124 3124 3124 3124 3124 3123 3123 3123 3122 3122 3121 3120 3120 3119 3118 3118 3117 3116 3115 3115 3113 3112 3112 3111 3110 3109 3107 3106 3105 3104 3103 3101 3100 3099 3097 3096 3095 3093 3092 3090 3089 3087 3086 3084 3082 3081 3079 3077 3076 3074 3073 3072 3071 3070 3069 3069 3068 3067 3066 3066 3065 3064 3062 3061 3059 3058 3057 3056 3055 3054 3053
3113 3114 3115 3116 3117 3118 3118 3119 3119 3120 3120 3120 3120 3120 3120 3120 3120 3120 3120 3119 3119 3118 3118 3117 3117 3116 3115 3114 3114 3113 3112 3111 3110 3109 3108 3107 3106 3105 3104 3102 3101 3100 3098 3097 3096 3095 3093 3092 3090 3089 3087 3086 3085 3083 3082 3080 3079 3077 3075 3073 3072 3070 3068 3066 3064 3063 3061 3060 3060 3059 3058 3057 3057 3056 3055 3054 3053 3052 3051 3050 3049 3048 3047 3046 3045
3111 3111 3112 3113 3114 3114 3115 3116 3116 3116 3117 3117 3117 3116 3116 3116 3116 3116 3115 3115 3114 3114 3113 3113 3112 3111 3110 3110 3109 3108 3107 3105 3104 3103 3102 3101 3100 3099 3097 3096 3094 3093 3091 3090 3089 3087 3086 3084 3083 3081 3080 3078 3077 3075 3074 3073 3071 3070 3068 3066 3065 3063 3062 3059 3057 3055 3053 3052 3050 3049 3048 3047 3047 3046 3046 3045 3044 3043 3042 3041 3040 3039 3039 3038 3037
3108 3108 3109 3110 3111 3111 3112 3112 3112 3112 3113 3113 3112 3112 3112 3112 3112 3111 3111 3110 3110 3109 3109 3108 3107 3106 3105 3104 3103 3102 3101 3100 3099 3097 3096 3095 3093 3092 3090 3089 3087 3086 3084 3082 3081 3079 3078 3076 3075 3073 3072 3070 3069 3067 3066 3065 3063 3062 3061 3059 3058 3056 3055 3053 3051 3049 3047 3045 3043 3041 3039 3038 3037 3036 3036 3035 3034 3034 3033 3032 3031 3031 3030 3029 3029